Wind_Speed
24 24 23 23 23 24 25 25 24 24 23 22 20 19 18 16 15 14 14 12 12 13 13 13 13 12 12 12 13 14 14 14 13 12 12 12 12 11 11 11 11 11
24 24 24 23 24 25 25 25 25 25 24 24 23 22 20 19 18 17 16 15 15 15 15 16 15 14 14 14 14 15 15 14 14 14 14 13 12 12 12 12 12 12
25 25 25 24 24 25 26 26 26 26 25 26 25 24 22 21 20 19 18 18 18 18 18 17 16 16 16 16 16 16 16 15 15 15 15 15 14 13 13 12 12 13
26 26 26 26 26 26 27 27 27 26 27 27 26 25 24 23 22 21 21 21 21 21 20 18 16 17 18 18 16 16 16 17 17 16 16 16 15 15 14 13 13 13
27 28 27 27 27 28 28 28 28 27 28 28 28 26 26 26 25 24 25 24 25 24 22 21 21 22 22 20 18 19 20 22 21 19 16 16 16 16 16 15 13 12
28 29 28 28 29 29 29 29 29 29 29 30 29 29 29 28 28 28 28 28 28 28 28 28 29 28 26 25 26 28 29 29 26 22 18 16 16 16 16 16 14 12
29 29 29 29 29 30 30 30 30 30 31 32 32 31 31 31 31 32 32 32 33 33 31 31 31 29 27 29 30 32 32 30 28 25 20 17 16 16 15 16 15 13
28 28 29 29 30 30 31 31 31 32 32 33 34 33 32 33 34 35 35 35 36 35 33 33 33 31 30 31 31 30 30 30 28 26 22 18 16 15 15 15 16 14
27 28 29 29 30 30 30 31 32 33 33 34 35 35 34 35 36 37 38 38 38 38 37 36 36 35 33 33 32 30 29 29 28 25 22 19 16 15 14 14 15 14
26 28 28 29 29 29 29 30 31 33 33 34 35 36 36 37 38 39 40 40 40 40 40 39 38 37 36 34 35 35 30 27 27 24 21 19 17 15 15 14 14 14
26 27 27 27 27 27 27 27 30 32 31 32 34 36 37 37 38 40 40 41 42 42 41 41 41 41 40 37 37 38 32 28 27 25 21 19 18 17 15 14 13 13
26 26 26 25 25 25 25 26 29 30 31 31 33 35 37 37 38 39 39 41 43 43 42 42 43 43 43 41 38 35 32 31 28 24 22 20 19 18 16 14 13 13
27 27 26 26 25 25 26 27 28 29 31 33 34 36 37 38 38 38 39 41 44 44 43 43 44 44 45 45 41 35 31 32 30 25 25 22 19 18 17 14 12 13
28 27 27 27 26 26 27 28 28 29 31 34 36 37 37 38 39 39 39 41 44 45 44 43 44 45 46 47 43 37 32 31 31 28 26 22 18 18 17 14 13 14
27 27 26 27 27 27 28 29 29 30 32 34 37 37 36 37 39 41 40 41 44 45 42 42 44 47 47 46 43 38 33 30 31 29 25 21 17 18 17 14 13 15
26 26 26 27 29 29 30 31 31 31 33 35 37 38 38 37 39 41 41 40 43 46 42 40 42 43 44 44 42 38 33 30 30 28 24 20 18 19 17 14 14 15
26 27 28 30 31 31 31 32 32 32 33 36 38 38 39 39 40 42 42 39 43 47 44 41 40 38 39 41 41 38 33 30 28 24 24 23 21 20 17 15 16 17
28 29 30 30 30 31 31 32 32 32 34 36 37 37 39 40 40 43 42 39 42 45 43 40 37 35 36 39 39 36 33 30 25 23 25 25 22 20 18 16 17 18
30 29 29 28 29 29 30 30 31 32 33 34 35 36 39 40 40 42 42 41 40 39 37 37 36 35 37 39 37 34 33 30 24 22 24 24 21 20 19 18 19 20
29 27 27 27 27 28 29 29 31 32 33 34 35 37 39 39 39 41 41 40 38 35 32 33 35 36 38 39 36 34 33 27 21 21 24 23 21 20 19 20 21 22
27 26 27 27 28 28 28 29 30 31 31 32 34 35 37 37 38 39 39 39 38 34 31 33 36 37 38 37 34 32 29 23 19 21 24 24 21 20 21 22 24 24
27 26 27 28 27 27 26 26 26 27 27 28 30 33 35 37 37 38 38 38 36 33 31 33 36 37 36 34 30 26 25 23 21 22 24 24 22 21 23 25 25 25
27 26 26 26 25 23 22 21 22 24 24 27 30 33 36 37 38 37 37 36 35 31 29 31 33 33 32 28 24 23 24 24 24 24 25 25 23 23 24 26 26 26
26 25 24 23 22 20 19 19 20 22 24 27 31 34 36 37 37 36 35 34 32 29 28 30 32 31 28 25 23 23 25 26 25 26 27 25 23 24 26 27 27 28
25 24 23 22 20 18 18 18 20 23 25 27 31 34 36 36 35 34 33 31 30 28 29 31 32 30 27 25 24 25 26 26 26 27 27 25 24 26 27 28 28 29
25 24 22 21 20 19 19 20 22 24 27 28 30 33 35 34 34 33 30 29 29 29 30 31 31 30 27 25 26 27 26 26 27 27 26 25 26 27 29 29 29 30
Wind_Direction
215 216 217 216 214 215 217 217 218 220 222 224 227 232 235 238 241 246 254 262 271 279 286 293 301 308 315 321 325 326 325 319 313 309 308 307 305 303 302 301 301 303
216 218 219 218 217 218 220 221 223 224 225 227 231 236 239 241 244 250 257 264 270 277 283 289 295 302 309 315 320 323 322 316 310 306 303 301 301 297 296 297 299 301
219 220 220 220 220 221 222 224 226 226 228 231 234 238 241 244 249 254 260 265 270 274 278 283 291 300 308 312 316 319 319 313 306 303 301 298 298 297 295 296 300 301
222 223 222 222 222 223 225 226 228 229 231 235 239 242 245 249 253 257 261 264 267 269 273 278 286 299 306 309 313 317 319 318 311 304 302 301 299 296 295 295 299 302
226 227 225 225 225 226 228 229 231 232 234 238 243 247 252 255 257 259 261 263 265 268 272 274 282 296 302 299 301 309 312 312 311 307 301 300 300 296 295 296 298 297
228 229 229 229 229 230 233 234 236 238 239 243 248 252 257 260 261 261 263 266 269 272 276 278 283 294 298 295 295 301 302 297 294 298 297 294 295 294 293 294 294 291
230 232 233 234 234 236 238 239 241 243 245 248 253 257 261 263 264 265 267 269 271 274 276 278 282 289 297 302 299 297 300 296 286 286 291 290 289 291 293 297 296 291
233 235 237 238 240 241 243 244 247 249 250 252 258 263 265 266 267 268 269 269 271 274 274 274 278 282 291 304 303 294 298 300 288 280 282 285 286 289 295 300 299 291
234 236 238 240 242 245 247 249 251 254 255 256 261 266 267 268 269 269 270 271 273 275 274 274 277 277 283 296 303 298 296 299 290 276 274 280 283 286 289 292 292 286
235 237 239 241 244 247 250 252 254 257 259 260 263 266 268 269 271 271 272 273 275 276 275 275 275 274 278 287 296 299 301 302 291 273 270 279 280 279 280 281 282 280
235 238 241 243 245 248 251 253 257 261 264 263 264 267 269 271 272 273 273 274 276 276 274 274 275 275 278 282 291 298 302 307 297 277 271 279 277 275 276 274 276 279
237 240 244 246 247 248 250 253 259 265 267 265 264 266 271 273 273 274 274 273 273 273 273 275 276 277 278 280 289 298 299 305 304 283 272 277 274 273 274 270 273 281
240 242 245 248 249 250 251 255 260 264 267 268 267 268 272 274 274 274 275 274 272 273 275 276 276 278 279 280 289 299 297 300 304 289 275 276 273 269 270 268 273 283
240 242 245 247 249 251 252 256 260 263 267 269 272 274 275 276 276 274 274 273 271 271 275 277 278 279 279 280 288 299 297 296 301 293 278 274 267 259 262 266 274 283
240 242 244 246 249 252 254 258 262 264 266 268 272 275 277 277 277 275 273 273 271 271 274 279 278 277 279 281 286 294 294 292 298 294 278 268 260 253 257 265 274 283
239 242 245 247 251 255 258 261 263 265 266 267 270 273 276 276 277 276 276 275 273 272 275 281 280 277 278 280 284 291 291 289 294 291 274 264 255 249 257 267 274 284
240 242 246 249 252 257 261 263 265 265 266 267 270 272 275 276 277 279 279 277 274 273 276 282 284 282 280 279 282 287 287 287 289 282 271 267 257 251 259 269 277 286
242 244 248 253 256 259 262 265 266 266 266 269 272 273 275 276 279 282 282 276 272 274 278 281 281 282 280 278 279 281 283 285 283 271 267 269 260 255 262 270 279 288
243 247 252 257 259 261 264 265 266 268 268 270 271 272 274 277 279 282 282 277 273 275 278 279 277 275 274 274 275 277 278 280 274 262 264 265 258 257 265 273 281 287
244 249 253 257 258 260 263 264 266 269 269 270 271 272 274 277 279 280 279 277 275 276 277 277 275 273 271 272 273 273 274 273 263 257 260 258 254 259 268 275 281 287
246 249 251 253 255 257 259 261 264 266 267 270 272 273 275 277 278 278 277 276 278 279 276 274 274 273 272 273 272 270 269 266 255 252 255 253 253 260 268 275 281 289
245 246 247 249 251 253 256 259 262 265 267 270 272 274 276 277 278 278 277 277 280 279 274 270 270 270 272 273 271 263 258 253 249 249 250 250 254 261 268 275 282 290
241 243 245 247 249 252 255 259 263 268 271 274 275 275 276 278 279 279 278 279 280 277 270 267 268 269 268 263 256 247 242 241 242 244 246 248 255 263 269 277 285 292
241 243 244 246 249 253 257 262 269 275 280 282 280 277 277 279 281 281 280 281 278 271 265 265 267 267 259 243 231 229 232 234 237 239 242 247 255 264 271 279 286 292
244 245 246 248 252 258 265 275 282 287 291 290 283 279 280 282 284 285 283 280 273 265 261 262 262 258 247 229 219 222 228 233 236 236 240 247 256 265 273 280 285 290
246 246 247 251 257 267 279 288 292 296 298 294 285 282 284 286 287 287 282 273 267 262 260 260 256 249 240 226 219 222 227 232 234 234 239 249 257 266 274 280 286 291
Height
3186 3187 3188 3189 3190 3191 3191 3192 3193 3193 3194 3194 3195 3195 3195 3196 3196 3196 3196 3196 3196 3195 3195 3195 3194 3194 3193 3193 3192 3191 3191 3190 3189 3189 3188 3187 3186 3185 3185 3184 3184 3184
3184 3185 3186 3187 3188 3189 3190 3190 3191 3191 3192 3192 3193 3193 3193 3193 3194 3194 3194 3194 3194 3193 3193 3193 3193 3192 3192 3192 3191 3190 3190 3189 3188 3188 3187 3186 3185 3185 3184 3184 3183 3183
3182 3183 3184 3185 3186 3187 3188 3188 3189 3189 3190 3190 3190 3191 3191 3192 3192 3192 3192 3192 3192 3191 3191 3191 3191 3191 3191 3191 3190 3190 3189 3188 3187 3187 3186 3185 3184 3184 3183 3183 3182 3182
3180 3181 3182 3183 3184 3185 3186 3186 3186 3187 3188 3188 3188 3189 3189 3190 3190 3190 3190 3190 3189 3189 3189 3189 3189 3190 3191 3190 3190 3189 3188 3187 3186 3186 3185 3185 3184 3183 3182 3181 3181 3180
3178 3179 3180 3181 3182 3183 3183 3184 3184 3185 3185 3185 3186 3186 3187 3187 3188 3188 3188 3187 3187 3186 3187 3187 3187 3189 3190 3189 3188 3187 3187 3186 3186 3185 3184 3183 3183 3182 3181 3180 3180 3179
3176 3177 3178 3179 3180 3181 3181 3181 3182 3183 3183 3183 3183 3184 3184 3185 3185 3185 3185 3185 3184 3184 3184 3184 3185 3186 3187 3186 3186 3185 3184 3185 3185 3184 3183 3182 3181 3180 3179 3179 3178 3178
3173 3174 3176 3177 3178 3178 3178 3179 3180 3180 3181 3181 3181 3181 3182 3183 3183 3182 3182 3182 3182 3181 3182 3182 3182 3183 3183 3182 3183 3182 3182 3182 3182 3182 3181 3179 3178 3178 3178 3177 3177 3176
3171 3172 3173 3174 3175 3176 3176 3177 3177 3178 3179 3179 3178 3179 3180 3180 3180 3180 3180 3179 3179 3179 3180 3180 3180 3180 3180 3179 3180 3180 3179 3179 3179 3179 3178 3177 3176 3176 3175 3175 3175 3175
3169 3170 3171 3172 3172 3173 3174 3175 3175 3176 3176 3176 3176 3176 3177 3177 3177 3177 3177 3176 3177 3177 3177 3177 3177 3177 3177 3177 3177 3177 3177 3177 3176 3176 3175 3174 3174 3174 3173 3173 3173 3173
3166 3167 3168 3169 3170 3170 3172 3173 3173 3173 3174 3174 3174 3174 3174 3174 3174 3174 3174 3173 3174 3174 3174 3174 3174 3173 3173 3174 3175 3174 3174 3174 3173 3173 3172 3171 3171 3171 3171 3171 3171 3171
3163 3164 3165 3166 3167 3168 3170 3171 3170 3170 3171 3171 3172 3171 3171 3171 3171 3171 3171 3171 3171 3170 3170 3171 3171 3170 3170 3171 3172 3172 3172 3171 3170 3170 3170 3169 3169 3169 3169 3169 3169 3169
3160 3161 3162 3163 3165 3166 3167 3168 3168 3167 3167 3168 3169 3168 3167 3167 3168 3167 3168 3168 3167 3167 3168 3168 3168 3167 3166 3166 3168 3169 3169 3168 3168 3167 3167 3166 3166 3167 3167 3167 3167 3167
3157 3158 3160 3161 3162 3164 3165 3165 3165 3165 3164 3164 3165 3165 3164 3163 3164 3164 3164 3165 3164 3164 3165 3165 3165 3165 3164 3163 3164 3166 3166 3166 3165 3165 3164 3164 3164 3164 3165 3165 3165 3165
3154 3156 3157 3158 3160 3161 3162 3162 3162 3162 3162 3161 3161 3161 3160 3160 3160 3160 3161 3161 3160 3160 3162 3162 3162 3161 3160 3160 3161 3163 3163 3163 3162 3162 3161 3161 3161 3162 3162 3162 3162 3162
3152 3153 3155 3156 3157 3158 3158 3159 3159 3159 3159 3158 3157 3157 3157 3156 3156 3156 3156 3156 3156 3155 3157 3158 3157 3157 3157 3157 3158 3159 3159 3159 3159 3159 3159 3159 3159 3160 3160 3160 3160 3160
3149 3151 3152 3153 3154 3154 3155 3156 3156 3156 3155 3154 3154 3154 3153 3152 3151 3150 3151 3152 3151 3150 3151 3152 3152 3152 3153 3155 3155 3155 3155 3155 3155 3155 3156 3156 3157 3157 3157 3157 3157 3157
3146 3148 3149 3150 3151 3151 3152 3153 3153 3153 3152 3151 3151 3150 3150 3148 3147 3145 3146 3148 3147 3145 3146 3148 3147 3148 3150 3151 3151 3151 3151 3151 3152 3152 3152 3153 3154 3154 3154 3154 3154 3154
3144 3145 3146 3147 3148 3149 3149 3149 3149 3150 3149 3148 3147 3147 3146 3145 3143 3142 3142 3143 3143 3141 3142 3142 3142 3144 3146 3147 3146 3146 3147 3147 3148 3148 3149 3150 3151 3151 3151 3151 3152 3152
3141 3142 3143 3144 3145 3146 3146 3146 3146 3146 3145 3145 3145 3144 3142 3141 3140 3139 3138 3138 3138 3138 3138 3138 3138 3140 3142 3142 3142 3143 3143 3143 3144 3145 3146 3147 3148 3148 3148 3148 3148 3148
3138 3139 3140 3141 3141 3142 3142 3143 3142 3142 3142 3141 3141 3140 3138 3137 3137 3136 3135 3134 3134 3135 3135 3134 3134 3136 3137 3138 3139 3139 3139 3140 3140 3141 3143 3144 3145 3145 3145 3145 3145 3145
3135 3136 3137 3137 3138 3138 3138 3139 3139 3138 3138 3138 3137 3136 3134 3133 3133 3132 3131 3131 3130 3131 3131 3130 3130 3132 3133 3133 3134 3135 3136 3136 3137 3138 3140 3141 3142 3142 3142 3142 3142 3141
3132 3133 3133 3134 3134 3134 3135 3135 3135 3134 3134 3134 3133 3132 3130 3129 3128 3128 3127 3127 3127 3127 3127 3126 3126 3128 3128 3129 3129 3131 3132 3132 3133 3135 3137 3138 3139 3139 3139 3139 3139 3139
3128 3129 3129 3130 3130 3131 3131 3131 3131 3131 3131 3131 3130 3128 3126 3125 3124 3124 3123 3123 3123 3123 3123 3123 3123 3123 3124 3125 3126 3127 3127 3128 3130 3132 3134 3135 3136 3136 3137 3136 3136 3136
3124 3125 3126 3126 3127 3127 3128 3128 3128 3128 3128 3128 3126 3125 3123 3122 3121 3120 3119 3119 3120 3119 3119 3120 3119 3119 3120 3121 3122 3123 3123 3124 3127 3129 3130 3132 3133 3133 3133 3133 3132 3132
3120 3121 3122 3122 3123 3123 3124 3124 3124 3124 3123 3123 3122 3120 3119 3118 3117 3116 3115 3115 3116 3116 3116 3117 3115 3114 3116 3117 3118 3119 3120 3121 3123 3125 3127 3128 3129 3130 3129 3129 3129 3129
3116 3117 3118 3118 3119 3119 3119 3119 3119 3119 3118 3118 3117 3116 3115 3114 3113 3112 3111 3111 3111 3111 3112 3112 3111 3111 3112 3113 3114 3115 3116 3119 3120 3122 3124 3125 3126 3126 3125 3124 3124 3124